Regional Weather Roundup
Issued by NWS

Home | Current Version | Previous Version | Graphics & Text | Print | Product List | Glossary On
Versions: 1 2 3 4 5 6 7 8 9 10 11 12 13 14 15 16 17 18 19 20 21 22 23 24 25 26 27 28 29 30 31 32 33 34 35 36 37 38 39 40 41 42 43 44 45 46 47 48 49 50
000
ASUS43 KLMK 021902
RWRKY
KENTUCKY REGIONAL WEATHER ROUNDUP
NATIONAL WEATHER SERVICE LOUISVILLE KY
200 PM EST FRI DEC 02 2016

NOTE "FAIR" INDICATES FEW OR NO CLOUDS BELOW 12,000 FEET
WITH NO SIGNIFICANT WEATHER AND/OR OBSTRUCTIONS TO VISIBILITY.

KYZ001>023-026-027-061>063-070>075-022000-
WESTERN AND SOUTH CENTRAL KENTUCKY

CITY           SKY/WX    TMP DP  RH WIND       PRES   REMARKS
PADUCAH        SUNNY     52  28  39 N5        30.26F
HENDERSON      SUNNY     46  28  49 NW10      30.26F
OWENSBORO      SUNNY     47  31  53 W7        30.26S
HOPKINSVILLE   SUNNY     51  30  44 N8        30.24F
BOWLING GREEN  SUNNY     53  28  38 W6        30.24F
GLASGOW        NOT AVBL
$$

KYZ024-025-028>034-038-045-046-053-022000-
NORTH CENTRAL KENTUCKY

CITY           SKY/WX    TMP DP  RH WIND       PRES   REMARKS
LOUISVILLE/SDF PTSUNNY   46  28  49 NW10      30.23F
LOUISVILLE/LOU CLOUDY    44  29  55 NW8       30.24S
FORT KNOX      MOSUNNY   47  30  51 W9        30.22S
$$

KYZ035>037-039>044-047>052-055>060-089>105-022000-
NORTHEAST KENTUCKY

CITY           SKY/WX    TMP DP  RH WIND       PRES   REMARKS
LEXINGTON      CLOUDY    44  29  55 VRB5      30.21F
COVINGTON      CLOUDY    39  30  70 W9        30.19F WCI  33
FRANKFORT      CLOUDY    43  29  57 N6        30.21F
$$

KYZ054-064>069-076>088-106>120-022000-
SOUTHEAST KENTUCKY

CITY           SKY/WX    TMP DP  RH WIND       PRES   REMARKS
JACKSON        SUNNY     47  31  53 VRB3      30.19S
LONDON         SUNNY     49  28  44 W10       30.19F
SOMERSET       SUNNY     48  30  49 W10       30.23R
MIDDLESBORO    SUNNY     53  26  34 W7        30.20S
MONTICELLO     CLEAR     51  29  42 W10       30.24R
$$




USA.gov is the U.S. government's official web portal to all federal, state and local government web resources and services.